Nassau, Bahamas

12:25 PM EST on February 19, 2017 (GMT -0500)
Nassau

Weather History for 78073 - July, 2013

Change the Weather History Date:

Monday, July 1, 2013

  Actual Average Record
Temperature  
Mean Temperature 83 °F -  
Max Temperature 87 °F 89 °F - ()
Min Temperature 79 °F 75 °F - ()
Cooling Degree Days 18    
Growing Degree Days 33 (Base 50)    
Moisture  
Dew Point 75 °F    
Average Humidity 76    
Maximum Humidity 84    
Minimum Humidity 63    
Precipitation  
Precipitation 0.00 in 0.21 in - ()
Sea Level Pressure  
Sea Level Pressure 30.02 in    
Wind  
Wind Speed 10 mph ()    
Max Wind Speed 14 mph    
Max Gust Speed -    
Visibility 6.7 miles    
Events Rain    
T = Trace of Precipitation, MM = Missing Value Source: Averaged Metar Reports

Daily Weather History Graph

Daily Weather History Graph

Search for Another Location

Airport or City:

Trip Planner

Search our weather history database for the weather conditions in past years. The results will help you decide how hot, cold, wet, or windy it might be!

Date:

Astronomy

Jul. 01, 2013 Rise Set
Actual Time 6:23 AM EDT 8:03 PM EDT
Civil Twilight 5:58 AM EDT 8:29 PM EDT
Nautical Twilight 5:27 AM EDT 9:00 PM EDT
Astronomical Twilight 4:54 AM EDT 9:32 PM EDT
Moon 1:29 AM EDT (7/1) 2:36 PM EDT (7/1)
Length of Visible Light 14h 31m
Length of Day
13h 40m
Waning Crescent, 35% of the Moon is Illuminated
Jul 1
Waning Crescent
Jul 8
New
Jul 15
First Quarter
Jul 22
Full
Jul 29
Last Quarter

Hourly Weather History & Observations

Time (EDT) Temp. Heat Index Dew Point Humidity Pressure Visibility Wind Dir Wind Speed Gust Speed Precip Events Conditions
12:00 AM 82.4 °F 88.2 °F 73.4 °F 74% 30.04 in 6.2 mi SE 13.8 mph - N/A   Mostly Cloudy
1:00 AM 82.4 °F 88.2 °F 73.4 °F 74% 30.02 in 6.2 mi SE 13.8 mph - N/A   Mostly Cloudy
2:00 AM 82 °F - 76 °F 77% 30.02 in 8 mi SE 11.5 mph - -   Partly Cloudy
2:00 AM 82.4 °F 89.5 °F 75.2 °F 79% 30.01 in 6.2 mi SE 11.5 mph - N/A   Mostly Cloudy
3:00 AM 80.6 °F 86.2 °F 75.2 °F 84% 30.01 in 6.2 mi ESE 11.5 mph - N/A   Mostly Cloudy
4:00 AM 80.6 °F 86.2 °F 75.2 °F 84% 30.00 in 6.2 mi ESE 11.5 mph - N/A   Mostly Cloudy
5:00 AM 82 °F - 76 °F 76% 30.01 in 8 mi SE 13.8 mph - -   Partly Cloudy
5:00 AM 82.4 °F 89.5 °F 75.2 °F 79% 30.00 in 6.2 mi SE 13.8 mph - N/A   Mostly Cloudy
6:00 AM 80.6 °F 86.2 °F 75.2 °F 84% 30.02 in 6.2 mi ESE 11.5 mph - N/A   Mostly Cloudy
7:00 AM 80.6 °F 86.2 °F 75.2 °F 84% 30.02 in 6.2 mi ESE 6.9 mph - N/A   Mostly Cloudy
8:00 AM 82 °F - 76 °F 77% 30.01 in 8 mi ESE 9.2 mph - -   Scattered Clouds
8:00 AM 82.4 °F 89.5 °F 75.2 °F 79% 30.00 in 6.2 mi ESE 9.2 mph - N/A   Mostly Cloudy
9:00 AM 82.4 °F 88.2 °F 73.4 °F 74% 30.01 in 6.2 mi SE 11.5 mph - N/A   Mostly Cloudy
10:00 AM 84.2 °F 90.9 °F 73.4 °F 70% 30.03 in 6.2 mi SE 10.4 mph - N/A   Mostly Cloudy
11:00 AM 86 °F - 76 °F 65% 30.04 in 8 mi SE 13.8 mph - -   Mostly Cloudy
11:00 AM 86.0 °F 95.1 °F 75.2 °F 70% 30.03 in 6.2 mi SE 13.8 mph - N/A   Mostly Cloudy
2:00 PM - - 77 °F % 30.02 in 8 mi SE 12.7 mph - -   Mostly Cloudy
2:00 PM 87.8 °F 99.7 °F 77.0 °F 70% 30.02 in 6.2 mi SE 12.7 mph - N/A   Mostly Cloudy
3:00 PM - - - N/A% 30.02 in 6.2 mi SSE 11.5 mph - N/A   Mostly Cloudy
4:00 PM 86.0 °F 95.1 °F 75.2 °F 70% 30.01 in 6.2 mi ESE 11.5 mph - N/A   Mostly Cloudy
5:00 PM 87 °F - 76 °F 63% 30.00 in 9 mi SSE 12.7 mph - -   Partly Cloudy
5:00 PM 87.8 °F 99.7 °F 77.0 °F 70% 30.00 in 6.2 mi SSE 12.7 mph - N/A   Mostly Cloudy
6:00 PM 84.2 °F 92.3 °F 75.2 °F 74% 30.00 in 6.2 mi ESE 10.4 mph - N/A   Mostly Cloudy
7:00 PM 84.2 °F 92.3 °F 75.2 °F 74% 30.03 in 6.2 mi ESE 9.2 mph - N/A   Mostly Cloudy
8:00 PM 84.2 °F 94.1 °F 77.0 °F 79% 30.04 in 6.2 mi SE 8.1 mph - N/A   Mostly Cloudy
9:00 PM 80.6 °F 85.4 °F 73.4 °F 79% 30.06 in 6.2 mi SSE 9.2 mph - N/A Rain Light Rain Showers
10:00 PM 80.6 °F 85.4 °F 73.4 °F 79% 30.06 in 6.2 mi South 3.5 mph - N/A   Mostly Cloudy
11:00 PM 83 °F - 77 °F 78% 30.08 in 8 mi SE 6.9 mph - -   Partly Cloudy
11:00 PM 82.4 °F 90.9 °F 77.0 °F 84% 30.08 in 6.2 mi SE 6.9 mph - N/A   Mostly Cloudy